Weather History for Henderson, NV

Change the Weather History Date:

Tuesday, February 12, 2013

  Actual Average (KLAS) Record (KLAS)
Temperature  
Mean Temperature 40 °F 52 °F  
Max Temperature 54 °F 62 °F 75 °F (1954)
Min Temperature 27 °F 43 °F 22 °F (1965)
Degree Days  
Heating Degree Days 24 13  
Month to date heating degree days 166  
Since 1 July heating degree days 1518  
Cooling Degree Days 0 0  
Month to date cooling degree days 0  
Year to date cooling degree days 0  
Moisture  
Dew Point 13 °F    
Average Humidity 34    
Maximum Humidity 51    
Minimum Humidity 19    
Precipitation  
Precipitation 0.00 in 0.03 in 0.74 in (2003)
Month to date precipitation 0.28  
Year to date precipitation 0.82  
Snow  
Snow 0.00 in 0.00 in T in (1959)
Month to date snowfall 0.0  
Since 1 July snowfall 0.2  
Snow Depth -    
Sea Level Pressure  
Sea Level Pressure 30.33 in    
Wind  
Wind Speed 1 mph (ESE)    
Max Wind Speed 8 mph    
Max Gust Speed -    
Visibility 10 miles    
Events      
T = Trace of Precipitation, MM = Missing Value Source: NWS Daily Summary

Daily Weather History Graph

Daily Weather History Graph

Search for Another Location

Airport:

Trip Planner

Search our weather history database for the weather conditions in past years. The results will help you decide how hot, cold, wet, or windy it might be!

Date:

Astronomy

Feb. 12, 2013 Rise Set
Actual Time 6:30 AM PST 5:19 PM PST
Civil Twilight 6:04 AM PST 5:45 PM PST
Nautical Twilight 5:34 AM PST 6:15 PM PST
Astronomical Twilight 5:04 AM PST 6:45 PM PST
Moon 7:37 AM PST (2/12) 8:16 PM PST (2/12)
Length of Visible Light 11h 41m
Length of Day
10h 48m
Waxing Crescent, 8% of the Moon is Illuminated
Feb 12
Waxing Crescent
Feb 17
First Quarter
Feb 25
Full
Mar 4
Last Quarter
Mar 11
New

Hourly Weather History & Observations

Time (PST) Temp. Windchill Dew Point Humidity Pressure Visibility Wind Dir Wind Speed Gust Speed Precip Events Conditions
12:56 AM 32.0 °F - 10.4 °F 41% 30.25 in 10.0 mi Calm Calm - N/A   Clear
1:56 AM 32.9 °F - 11.1 °F 40% 30.29 in 10.0 mi Calm Calm - N/A   Clear
2:56 AM 30.0 °F - 11.1 °F 45% 30.31 in 10.0 mi Calm Calm - N/A   Clear
4:56 AM 29.1 °F - 12.0 °F 49% 30.34 in 10.0 mi Calm Calm - N/A   Clear
5:56 AM 27.1 °F - 11.1 °F 51% 30.37 in 10.0 mi Calm Calm - N/A   Clear
6:56 AM 28.0 °F - 12.0 °F 51% 30.39 in 10.0 mi Calm Calm - N/A   Clear
7:56 AM 32.9 °F - 13.1 °F 44% 30.41 in 10.0 mi Calm Calm - N/A   Clear
8:56 AM 41.0 °F - 11.1 °F 29% 30.41 in 10.0 mi Calm Calm - N/A   Clear
9:56 AM 43.9 °F - 11.1 °F 26% 30.40 in 10.0 mi Calm Calm - N/A   Clear
10:56 AM 46.9 °F - 11.1 °F 24% 30.38 in 10.0 mi NE 6.9 mph - N/A   Clear
11:56 AM 48.9 °F - 12.0 °F 23% 30.36 in 10.0 mi Calm Calm - N/A   Clear
12:56 PM 50.0 °F - 11.1 °F 21% 30.33 in 10.0 mi Variable 4.6 mph - N/A   Clear
1:56 PM 52.9 °F - 12.0 °F 20% 30.31 in 10.0 mi North 8.1 mph - N/A   Clear
2:56 PM 52.9 °F - 12.0 °F 20% 30.31 in 10.0 mi NNE 5.8 mph - N/A   Clear
3:56 PM 54.0 °F - 12.0 °F 19% 30.30 in 10.0 mi Calm Calm - N/A   Clear
4:56 PM 52.9 °F - 12.0 °F 20% 30.30 in 10.0 mi Calm Calm - N/A   Clear
5:56 PM 47.8 °F - 14.0 °F 26% 30.31 in 10.0 mi Calm Calm - N/A   Clear
6:56 PM 44.6 °F - 15.8 °F 31% 30.27 in 10.0 mi Calm Calm - N/A   Clear
7:56 PM 41.0 °F 35.8 °F 14.0 °F 33% 30.32 in 10.0 mi South 8.1 mph - N/A   Clear
8:56 PM 38.8 °F - 16.2 °F 40% 30.32 in 10.0 mi Calm Calm - N/A   Clear
9:56 PM 37.9 °F - 16.2 °F 41% 30.32 in 10.0 mi Calm Calm - N/A   Clear
10:56 PM 36.9 °F 30.7 °F 15.1 °F 41% 30.32 in 10.0 mi South 8.1 mph - N/A   Clear
11:56 PM 36.0 °F 29.6 °F 15.1 °F 43% 30.32 in 10.0 mi South 8.1 mph - N/A   Clear